[[{"header":{"parameterUnit":"m.s-1","parameterCategory":1,"la1":30.2991,"la2":30.254,"lo1":-89.0895,"lo2":-89.0444,"dy":0.0017,"dx":0.0017,"nx":28,"ny":28,"refTime":"2024-09-01T09:00:00:Z","depth":0,"parameterNumber":2,"parameterNumberName":"U-component_of_WINDS"},"data":[0,0,0,0,0,0,0,0,0,0,0,0,0,0,0,0,0,0,0,0,0,0,0,0,0,0,0,0,0,0,0,0,0,0,0,0,0,0,0,0,0,0,0,0,0,0,0,0,0,0,0,0,0,0,0,0,0,0,0.3592,0.3593,0,0.3728,0.373,0.3732,0.3807,0.3807,0.3807,0.3808,0.3948,0.3952,0.3955,0,0,0,0,0,0,0,0,0,0,0,0,0,0.3394,0.3397,0.3592,0.3593,0.3595,0.3728,0.373,0.3732,0.3807,0.3807,0.3808,0.3808,0.3947,0.3951,0.3955,0,0,0,0,0,0,0,0,0,0,0,0,0,0.35,0.3398,0.3591,0.3649,0.3655,0.3728,0.373,0.3732,0.3807,0.3807,0.3808,0.3808,0.3946,0.3951,0.3956,0.3983,0,0,0.3972,0.3975,0,0,0,0,0,0,0,0,0.3494,0.3507,0.3639,0.3645,0.3652,0.3751,0.3712,0.3816,0.3807,0.3749,0.3808,0.3808,0.3882,0.3893,0.3918,0.3989,0.3995,0.3973,0.3976,0.3978,0.398,0,0,0,0,0,0,0,0.3487,0.3502,0.3646,0.364,0.3649,0.3667,0.3682,0.3732,0.3812,0.3754,0.376,0.3775,0.3886,0.3912,0.3922,0.3997,0.3973,0.3977,0.3981,0.3983,0.4094,0.4093,0,0,0,0,0,0,0.347,0.3495,0.3642,0.365,0.3572,0.367,0.3687,0.3719,0.3812,0.3827,0.3775,0.3778,0.3903,0.3915,0.3927,0.3962,0.3978,0.3983,0.3986,0.4094,0.4094,0.4093,0,0,0,0,0,0,0.3466,0.3483,0.3636,0.3574,0.3595,0.3673,0.3708,0.3722,0.3748,0.3828,0.3842,0.3787,0.3904,0.3919,0.3967,0.3968,0.3986,0.399,0.4094,0.4094,0.4093,0.4034,0,0,0,0,0,0,0.346,0.3481,0.3492,0.3574,0.3598,0.3675,0.3708,0.3724,0.3757,0.3763,0.3843,0.3857,0.3905,0.3959,0.3973,0.3976,0.3995,0.4095,0.4094,0.4094,0.4036,0.4031,0.4027,0,0,0,0,0,0.3452,0.3471,0.3492,0.3509,0.3614,0.3675,0.3688,0.3744,0.3757,0.3768,0.3819,0.3854,0.3966,0.3963,0.3979,0.3984,0.4095,0.4094,0.4094,0.4038,0.4032,0.4027,0,0,0,0,0,0,0.3388,0.3483,0.3508,0.3553,0.3605,0.3687,0.3704,0.3737,0.3787,0.379,0.3857,0.3874,0.3915,0.3955,0.395,0.4013,0.4034,0.4036,0.3986,0.3981,0.3977,0.3966,0.3999,0,0,0,0,0,0.3379,0.342,0.35,0.3533,0.3557,0.3625,0.3654,0.3692,0.3749,0.3771,0.3826,0.3879,0.3926,0.3956,0.4004,0.4042,0.4059,0.4052,0.4048,0.4044,0.4046,0.4066,0.4063,0.4092,0.4092,0.4092,0,0,0.3361,0.3417,0.344,0.3521,0.3566,0.3606,0.3644,0.3686,0.3716,0.3778,0.3826,0.3867,0.3931,0.3973,0.3995,0.4007,0.4041,0.4044,0.404,0.4044,0.4065,0.4062,0.4059,0.4091,0.4091,0.4091,0,0,0.3348,0.3396,0.3427,0.347,0.3537,0.3582,0.3589,0.3665,0.3695,0.3744,0.379,0.3827,0.3907,0.395,0.3982,0.3981,0.4015,0.3995,0.3973,0.3991,0.3989,0.3987,0.3985,0.3984,0.3996,0.3996,0.3996,0,0.3318,0.3381,0.3439,0.3477,0.351,0.3567,0.3597,0.3637,0.3716,0.3737,0.375,0.3849,0.3897,0.3948,0.3947,0.3972,0.3981,0.3987,0.3985,0.3984,0.3983,0.3981,0.3981,0.3993,0.3994,0.3994,0.3994,0,0.3338,0.3381,0.3398,0.3471,0.3506,0.3541,0.3602,0.3631,0.3665,0.3708,0.3755,0.3813,0.3872,0.3888,0.3922,0.3943,0.3948,0.3972,0.3994,0.3976,0.3976,0.3976,0.3989,0.399,0.3991,0.3992,0,0,0.3292,0.3394,0.3399,0.3431,0.3508,0.3541,0.3577,0.3634,0.3656,0.3708,0.3738,0.3803,0.3824,0.386,0.39,0.3916,0.3909,0.3938,0.394,0.3928,0.3932,0.3913,0.3912,0.3931,0.3931,0.3931,0.3926,0,0.3289,0.3356,0.3407,0.3454,0.3493,0.3545,0.3576,0.3625,0.3665,0.3703,0.3748,0.3791,0.3817,0.3839,0.3858,0.3905,0.391,0.3907,0.3959,0.396,0.394,0.3912,0.3893,0.3886,0.3927,0.3927,0.3927,0,0.3297,0.3344,0.3394,0.3463,0.3481,0.3508,0.3562,0.3598,0.3654,0.3682,0.372,0.376,0.3799,0.3816,0.3869,0.3865,0.3889,0.3915,0.3916,0.3923,0.3942,0.3916,0.3885,0.3883,0.3928,0.3928,0.3928,0,0.3255,0.3332,0.3371,0.3398,0.348,0.3496,0.3531,0.3587,0.3617,0.3664,0.3684,0.3735,0.3763,0.3801,0.3853,0.3862,0.3899,0.3922,0.3922,0.392,0.3927,0.3926,0.3898,0.3944,0.3944,0.3944,0.3944,0,0.3247,0.3275,0.3353,0.3377,0.3409,0.3467,0.3497,0.3537,0.3585,0.3617,0.3665,0.3694,0.3761,0.3797,0.3838,0.3873,0.3886,0.3908,0.3918,0.3903,0.39,0.392,0.3921,0.3944,0.3944,0.3944,0.3944,0,0.3207,0.326,0.3306,0.3378,0.3397,0.3417,0.3479,0.3503,0.3545,0.3584,0.3596,0.3661,0.3706,0.3761,0.3824,0.3851,0.3881,0.3898,0.3862,0.3868,0.3864,0.3863,0.3846,0.3846,0.3893,0.3893,0.3892,0,0.3198,0.322,0.3294,0.3318,0.3351,0.339,0.3419,0.3476,0.3505,0.3567,0.3584,0.3631,0.3673,0.3741,0.3793,0.384,0.3858,0.3848,0.3865,0.3848,0.3855,0.3853,0.3854,0.3844,0.3843,0.3843,0.3842,0,0.3176,0.32,0.3241,0.329,0.3323,0.3365,0.3409,0.3426,0.3491,0.3521,0.3566,0.3597,0.3659,0.3706,0.3759,0.3794,0.3828,0.3836,0.3838,0.3822,0.38,0.381,0.3849,0.3836,0.3837,0.3837,0.3838,0.3838,0.315,0.3171,0.3225,0.3268,0.3306,0.3345,0.337,0.3413,0.3452,0.3507,0.3537,0.3581,0.3633,0.3707,0.374,0.3774,0.3787,0.3791,0.3792,0.3791,0.3785,0.3795,0.3785,0.3785,0.3785,0.3785,0.3785,0,0.3129,0.3165,0.3204,0.3262,0.3295,0.3323,0.3372,0.3397,0.3435,0.348,0.3518,0.3568,0.3612,0.3666,0.3714,0.373,0.3746,0.374,0.3739,0.3746,0.3772,0.3765,0.3726,0.3726,0.3726,0.3726,0.3726,0.3726,0.3122,0.3158,0.3188,0.3242,0.3279,0.3321,0.3346,0.3381,0.3417,0.347,0.3506,0.3541,0.3589,0.3639,0.3679,0.3694,0.3708,0.3697,0.3716,0.3739,0.3745,0.375,0.3743,0.37,0.37,0.3687,0.3686,0.3686]},{"header":{"parameterUnit":"m.s-1","parameterCategory":1,"la1":30.2991,"la2":30.254,"lo1":-89.0895,"lo2":-89.0444,"dy":0.0017,"dx":0.0017,"nx":28,"ny":28,"refTime":"2024-09-01T09:00:00:Z","depth":0,"parameterNumber":3,"parameterNumberName":"V-component_of_WINDS"},"data":[0,0,0,0,0,0,0,0,0,0,0,0,0,0,0,0,0,0,0,0,0,0,0,0,0,0,0,0,0,0,0,0,0,0,0,0,0,0,0,0,0,0,0,0,0,0,0,0,0,0,0,0,0,0,0,0,0,0,2.3185,2.3185,0,2.313,2.313,2.3129,2.3089,2.3089,2.3089,2.3088,2.3029,2.3028,2.3027,0,0,0,0,0,0,0,0,0,0,0,0,0,2.3253,2.3252,2.3185,2.3185,2.3184,2.3131,2.313,2.3129,2.3089,2.3089,2.3089,2.3088,2.3029,2.3028,2.3026,0,0,0,0,0,0,0,0,0,0,0,0,0,2.3213,2.3252,2.3185,2.3158,2.3155,2.3131,2.313,2.3129,2.309,2.3089,2.3089,2.3088,2.303,2.3028,2.3026,2.3024,0,0,2.302,2.302,0,0,0,0,0,0,0,0,2.3216,2.3211,2.3162,2.316,2.3156,2.3116,2.3132,2.3094,2.309,2.3114,2.3088,2.3088,2.3058,2.3054,2.3045,2.3021,2.3019,2.302,2.3019,2.3018,2.3018,0,0,0,0,0,0,0,2.3218,2.3213,2.3163,2.3162,2.3158,2.3147,2.3141,2.3124,2.3089,2.3112,2.3109,2.3103,2.3056,2.3047,2.3043,2.3018,2.302,2.3019,2.3017,2.3017,2.299,2.299,0,0,0,0,0,0,2.3226,2.3216,2.3165,2.3162,2.3185,2.3146,2.314,2.313,2.309,2.3083,2.3104,2.3102,2.305,2.3045,2.3041,2.3035,2.3018,2.3016,2.3015,2.2989,2.299,2.299,0,0,0,0,0,0,2.3227,2.3222,2.3167,2.3188,2.318,2.3146,2.3135,2.3129,2.3119,2.3083,2.3077,2.31,2.305,2.3043,2.3029,2.3032,2.3016,2.3014,2.2989,2.2989,2.299,2.3024,0,0,0,0,0,0,2.323,2.3223,2.3222,2.3188,2.3179,2.3157,2.3135,2.3128,2.3116,2.3113,2.3078,2.3072,2.3049,2.3032,2.3027,2.3029,2.3012,2.2988,2.2989,2.299,2.3022,2.3025,2.3028,0,0,0,0,0,2.3232,2.3233,2.3222,2.3216,2.3178,2.3157,2.3152,2.3126,2.3117,2.3115,2.3092,2.3073,2.3033,2.3031,2.3025,2.3027,2.2988,2.2989,2.299,2.3021,2.3025,2.3028,0,0,0,0,0,0,2.3267,2.3228,2.3215,2.3206,2.3185,2.3151,2.3148,2.3131,2.3112,2.311,2.3077,2.307,2.3058,2.3041,2.3039,2.3022,2.3008,2.3008,2.3034,2.3037,2.304,2.3044,2.3011,0,0,0,0,0,2.3274,2.3261,2.3228,2.3222,2.3213,2.3183,2.3173,2.3155,2.3131,2.3122,2.3098,2.3076,2.3058,2.3047,2.3029,2.302,2.3011,2.3019,2.3022,2.3025,2.3024,2.3017,2.302,2.2993,2.2993,2.2993,0,0,2.3287,2.3264,2.3258,2.3229,2.3211,2.3197,2.3175,2.3162,2.3152,2.312,2.3104,2.3086,2.3059,2.3047,2.3041,2.3033,2.303,2.3026,2.3028,2.3026,2.3019,2.3021,2.3023,2.2994,2.2994,2.2994,0,0,2.3304,2.3286,2.328,2.3262,2.3236,2.3216,2.3215,2.3183,2.317,2.3154,2.313,2.3117,2.3087,2.3069,2.3055,2.3067,2.3048,2.3062,2.3077,2.3071,2.3073,2.3075,2.3078,2.3079,2.3062,2.3062,2.3062,0,2.3323,2.3303,2.3278,2.3266,2.3254,2.3226,2.3218,2.3203,2.3171,2.3163,2.3155,2.3117,2.3097,2.308,2.3083,2.3073,2.307,2.3065,2.3075,2.3077,2.3078,2.308,2.3081,2.3064,2.3064,2.3063,2.3063,0,2.3328,2.3315,2.3312,2.3284,2.3271,2.3262,2.3234,2.3224,2.3208,2.3188,2.3172,2.3148,2.3124,2.3119,2.3102,2.3099,2.3095,2.3082,2.3066,2.3083,2.3084,2.3085,2.3066,2.3066,2.3065,2.3065,0,0,2.3364,2.3322,2.3322,2.3308,2.3278,2.3266,2.3256,2.3233,2.3225,2.3205,2.3194,2.317,2.3158,2.3143,2.3124,2.3119,2.3128,2.3106,2.3105,2.311,2.3123,2.3132,2.3133,2.3117,2.3117,2.3117,2.3124,0,2.3375,2.3355,2.3332,2.3319,2.3306,2.328,2.3271,2.325,2.3232,2.3218,2.3197,2.3181,2.3166,2.3157,2.3151,2.3129,2.313,2.3128,2.3105,2.3104,2.3111,2.3134,2.3144,2.3152,2.3125,2.3125,2.3125,0,2.3385,2.3367,2.3353,2.3324,2.3318,2.331,2.3287,2.3274,2.3251,2.3238,2.3222,2.3202,2.3189,2.3177,2.3157,2.3156,2.3145,2.3133,2.3132,2.3128,2.3115,2.3129,2.3154,2.3155,2.3126,2.3126,2.3126,0,2.3411,2.3383,2.3371,2.3361,2.3327,2.3322,2.3307,2.3283,2.3271,2.3252,2.3244,2.3223,2.3211,2.3194,2.3169,2.3163,2.3152,2.3138,2.3139,2.314,2.3136,2.3137,2.3159,2.3133,2.3133,2.3133,2.3133,0,2.3424,2.3417,2.3382,2.3375,2.3365,2.3339,2.333,2.3313,2.3292,2.328,2.3257,2.3246,2.3214,2.3199,2.318,2.3165,2.3161,2.3149,2.3143,2.315,2.3151,2.3141,2.3139,2.3133,2.3133,2.3133,2.3133,0,2.3451,2.3428,2.3413,2.3382,2.3375,2.3369,2.3342,2.3333,2.3315,2.33,2.3295,2.3265,2.3247,2.3221,2.3193,2.318,2.3168,2.3161,2.3177,2.3173,2.3176,2.3175,2.3191,2.3191,2.3166,2.3167,2.3167,0,2.346,2.3454,2.3423,2.3414,2.3401,2.3386,2.3374,2.3349,2.3337,2.331,2.3304,2.3284,2.3267,2.3238,2.3213,2.3192,2.3183,2.319,2.3179,2.3186,2.3181,2.3181,2.318,2.3192,2.3192,2.3192,2.3193,0,2.3479,2.3468,2.3453,2.3433,2.342,2.3403,2.3385,2.3379,2.3349,2.3337,2.3319,2.3305,2.3278,2.3258,2.3234,2.3218,2.32,2.3197,2.3196,2.3201,2.321,2.3204,2.3182,2.3196,2.3196,2.3195,2.3195,2.3195,2.3496,2.3489,2.3467,2.345,2.3434,2.3418,2.3408,2.3389,2.3374,2.335,2.3336,2.3318,2.3294,2.326,2.3245,2.323,2.3223,2.3221,2.3221,2.3221,2.3222,2.3215,2.3226,2.3225,2.3225,2.3225,2.3225,0,2.3512,2.3497,2.3482,2.3458,2.3445,2.3432,2.3411,2.3401,2.3385,2.3366,2.3349,2.3327,2.3308,2.3283,2.3261,2.3254,2.3245,2.3249,2.3248,2.3244,2.3231,2.3233,2.3256,2.3256,2.3256,2.3256,2.3256,2.3256,2.3519,2.3507,2.3494,2.3473,2.3457,2.344,2.3429,2.3414,2.3398,2.3375,2.3359,2.3343,2.3321,2.3298,2.3279,2.3272,2.3264,2.3271,2.3261,2.3248,2.3245,2.3243,2.3245,2.327,2.327,2.3275,2.3275,2.3276]}]]